owner,sensor,date,latitude,longitude,vertical_datum,sea_water_temperature,qcFlag
Anadarko,ioos:station:wmo:42884:1,2020-04-01T00:03:00Z,27.3546,-94.4732,10.0,24.3,11111222
Anadarko,ioos:station:wmo:42884:1,2020-04-01T00:13:00Z,27.3546,-94.4732,10.0,24.4,11111222
Anadarko,ioos:station:wmo:42884:1,2020-04-01T00:23:00Z,27.3546,-94.4732,10.0,24.4,11111222
Anadarko,ioos:station:wmo:42884:1,2020-04-01T00:33:00Z,27.3546,-94.4732,10.0,24.3,11111222
Anadarko,ioos:station:wmo:42884:1,2020-04-01T00:43:00Z,27.3546,-94.4732,10.0,24.3,11111222
Anadarko,ioos:station:wmo:42884:1,2020-04-01T00:53:00Z,27.3546,-94.4732,10.0,24.2,11111222
Anadarko,ioos:station:wmo:42884:1,2020-04-01T01:03:00Z,27.3546,-94.4732,10.0,24.4,11111222
Anadarko,ioos:station:wmo:42884:1,2020-04-01T01:13:00Z,27.3546,-94.4732,10.0,24.5,11111222
Anadarko,ioos:station:wmo:42884:1,2020-04-01T01:23:00Z,27.3546,-94.4732,10.0,24.5,11111222
Anadarko,ioos:station:wmo:42884:1,2020-04-01T01:33:00Z,27.3546,-94.4732,10.0,24.6,11111222
Anadarko,ioos:station:wmo:42884:1,2020-04-01T01:43:00Z,27.3546,-94.4732,10.0,24.6,11111222
Anadarko,ioos:station:wmo:42884:1,2020-04-01T01:53:00Z,27.3546,-94.4732,10.0,24.6,11111222
Anadarko,ioos:station:wmo:42884:1,2020-04-01T02:03:00Z,27.3546,-94.4732,10.0,24.6,11111222
Anadarko,ioos:station:wmo:42884:1,2020-04-01T02:13:00Z,27.3546,-94.4732,10.0,24.6,11111222
Anadarko,ioos:station:wmo:42884:1,2020-04-01T02:23:00Z,27.3546,-94.4732,10.0,24.7,11111222
Anadarko,ioos:station:wmo:42884:1,2020-04-01T02:33:00Z,27.3546,-94.4732,10.0,24.8,11111222
Anadarko,ioos:station:wmo:42884:1,2020-04-01T02:43:00Z,27.3546,-94.4732,10.0,24.8,11111222
Anadarko,ioos:station:wmo:42884:1,2020-04-01T02:53:00Z,27.3546,-94.4732,10.0,24.7,11111222
Anadarko,ioos:station:wmo:42884:1,2020-04-01T03:03:00Z,27.3546,-94.4732,10.0,24.7,11111222
Anadarko,ioos:station:wmo:42884:1,2020-04-01T03:13:00Z,27.3546,-94.4732,10.0,24.7,11111222
Anadarko,ioos:station:wmo:42884:1,2020-04-01T03:23:00Z,27.3546,-94.4732,10.0,24.8,11111222
Anadarko,ioos:station:wmo:42884:1,2020-04-01T03:33:00Z,27.3546,-94.4732,10.0,24.7,11111222
Anadarko,ioos:station:wmo:42884:1,2020-04-01T03:43:00Z,27.3546,-94.4732,10.0,24.7,11111222
Anadarko,ioos:station:wmo:42884:1,2020-04-01T03:53:00Z,27.3546,-94.4732,10.0,24.7,11111222
Anadarko,ioos:station:wmo:42884:1,2020-04-01T04:03:00Z,27.3546,-94.4732,10.0,24.7,11111222
Anadarko,ioos:station:wmo:42884:1,2020-04-01T04:13:00Z,27.3546,-94.4732,10.0,24.8,11111222
Anadarko,ioos:station:wmo:42884:1,2020-04-01T04:23:00Z,27.3546,-94.4732,10.0,24.4,11111222
Anadarko,ioos:station:wmo:42884:1,2020-04-01T04:33:00Z,27.3546,-94.4732,10.0,23.4,11111222
Anadarko,ioos:station:wmo:42884:1,2020-04-01T04:43:00Z,27.3546,-94.4732,10.0,23.6,11111222
Anadarko,ioos:station:wmo:42884:1,2020-04-01T04:53:00Z,27.3546,-94.4732,10.0,24.3,11111222
Anadarko,ioos:station:wmo:42884:1,2020-04-01T05:03:00Z,27.3546,-94.4732,10.0,24.2,11111222
Anadarko,ioos:station:wmo:42884:1,2020-04-01T05:13:00Z,27.3546,-94.4732,10.0,24.2,11111222
Anadarko,ioos:station:wmo:42884:1,2020-04-01T05:23:00Z,27.3546,-94.4732,10.0,24.5,11111222
Anadarko,ioos:station:wmo:42884:1,2020-04-01T05:33:00Z,27.3546,-94.4732,10.0,24.5,11111222
Anadarko,ioos:station:wmo:42884:1,2020-04-01T05:43:00Z,27.3546,-94.4732,10.0,24.6,11111222
Anadarko,ioos:station:wmo:42884:1,2020-04-01T05:53:00Z,27.3546,-94.4732,10.0,24.7,11111222
Anadarko,ioos:station:wmo:42884:1,2020-04-01T06:03:00Z,27.3546,-94.4732,10.0,24.6,11111222
Anadarko,ioos:station:wmo:42884:1,2020-04-01T06:13:00Z,27.3546,-94.4732,10.0,24.7,11111222
Anadarko,ioos:station:wmo:42884:1,2020-04-01T06:23:00Z,27.3546,-94.4732,10.0,24.6,11111222
Anadarko,ioos:station:wmo:42884:1,2020-04-01T06:33:00Z,27.3546,-94.4732,10.0,24.7,11111222
Anadarko,ioos:station:wmo:42884:1,2020-04-01T06:43:00Z,27.3546,-94.4732,10.0,24.7,11111222
Anadarko,ioos:station:wmo:42884:1,2020-04-01T06:53:00Z,27.3546,-94.4732,10.0,24.7,11111222
Anadarko,ioos:station:wmo:42884:1,2020-04-01T07:03:00Z,27.3546,-94.4732,10.0,24.7,11111222
Anadarko,ioos:station:wmo:42884:1,2020-04-01T07:13:00Z,27.3546,-94.4732,10.0,24.7,11111222
Anadarko,ioos:station:wmo:42884:1,2020-04-01T07:23:00Z,27.3546,-94.4732,10.0,24.7,11111222
Anadarko,ioos:station:wmo:42884:1,2020-04-01T07:33:00Z,27.3546,-94.4732,10.0,24.6,11111222
Anadarko,ioos:station:wmo:42884:1,2020-04-01T07:43:00Z,27.3546,-94.4732,10.0,24.6,11111222
Anadarko,ioos:station:wmo:42884:1,2020-04-01T07:53:00Z,27.3546,-94.4732,10.0,24.7,11111222
Anadarko,ioos:station:wmo:42884:1,2020-04-01T08:03:00Z,27.3546,-94.4732,10.0,24.6,11111222
Anadarko,ioos:station:wmo:42884:1,2020-04-01T08:13:00Z,27.3546,-94.4732,10.0,24.6,11111222
Anadarko,ioos:station:wmo:42884:1,2020-04-01T08:23:00Z,27.3546,-94.4732,10.0,24.6,11111222
Anadarko,ioos:station:wmo:42884:1,2020-04-01T08:33:00Z,27.3546,-94.4732,10.0,24.6,11111222
Anadarko,ioos:station:wmo:42884:1,2020-04-01T08:43:00Z,27.3546,-94.4732,10.0,24.6,11111222
Anadarko,ioos:station:wmo:42884:1,2020-04-01T08:53:00Z,27.3546,-94.4732,10.0,24.6,11111222
Anadarko,ioos:station:wmo:42884:1,2020-04-01T09:03:00Z,27.3546,-94.4732,10.0,24.6,11111222
Anadarko,ioos:station:wmo:42884:1,2020-04-01T09:13:00Z,27.3546,-94.4732,10.0,24.6,11111222
Anadarko,ioos:station:wmo:42884:1,2020-04-01T09:23:00Z,27.3546,-94.4732,10.0,24.6,11111222
Anadarko,ioos:station:wmo:42884:1,2020-04-01T09:33:00Z,27.3546,-94.4732,10.0,24.6,11111222
Anadarko,ioos:station:wmo:42884:1,2020-04-01T09:43:00Z,27.3546,-94.4732,10.0,24.6,11111222
Anadarko,ioos:station:wmo:42884:1,2020-04-01T09:53:00Z,27.3546,-94.4732,10.0,24.6,11111222
Anadarko,ioos:station:wmo:42884:1,2020-04-01T10:03:00Z,27.3546,-94.4732,10.0,24.6,11111222
Anadarko,ioos:station:wmo:42884:1,2020-04-01T10:13:00Z,27.3546,-94.4732,10.0,24.6,11111222
Anadarko,ioos:station:wmo:42884:1,2020-04-01T10:23:00Z,27.3546,-94.4732,10.0,24.5,11111222
Anadarko,ioos:station:wmo:42884:1,2020-04-01T10:33:00Z,27.3546,-94.4732,10.0,24.6,11111222
Anadarko,ioos:station:wmo:42884:1,2020-04-01T10:43:00Z,27.3546,-94.4732,10.0,24.6,11111222
Anadarko,ioos:station:wmo:42884:1,2020-04-01T10:53:00Z,27.3546,-94.4732,10.0,24.5,11111222
Anadarko,ioos:station:wmo:42884:1,2020-04-01T11:03:00Z,27.3546,-94.4732,10.0,24.5,11111222
Anadarko,ioos:station:wmo:42884:1,2020-04-01T11:13:00Z,27.3546,-94.4732,10.0,24.6,11111222
Anadarko,ioos:station:wmo:42884:1,2020-04-01T11:23:00Z,27.3546,-94.4732,10.0,24.4,11111222
Anadarko,ioos:station:wmo:42884:1,2020-04-01T11:33:00Z,27.3546,-94.4732,10.0,24.5,11111222
Anadarko,ioos:station:wmo:42884:1,2020-04-01T11:43:00Z,27.3546,-94.4732,10.0,24.4,11111222
Anadarko,ioos:station:wmo:42884:1,2020-04-01T11:53:00Z,27.3546,-94.4732,10.0,24.0,11111222
Anadarko,ioos:station:wmo:42884:1,2020-04-01T12:03:00Z,27.3546,-94.4732,10.0,23.8,11111222
Anadarko,ioos:station:wmo:42884:1,2020-04-01T12:13:00Z,27.3546,-94.4732,10.0,23.5,11111222
Anadarko,ioos:station:wmo:42884:1,2020-04-01T12:23:00Z,27.3546,-94.4732,10.0,23.9,11111222
Anadarko,ioos:station:wmo:42884:1,2020-04-01T12:33:00Z,27.3546,-94.4732,10.0,23.9,11111222
Anadarko,ioos:station:wmo:42884:1,2020-04-01T12:43:00Z,27.3546,-94.4732,10.0,23.9,11111222
Anadarko,ioos:station:wmo:42884:1,2020-04-01T12:53:00Z,27.3546,-94.4732,10.0,23.9,11111222
Anadarko,ioos:station:wmo:42884:1,2020-04-01T13:03:00Z,27.3546,-94.4732,10.0,23.8,11111222
Anadarko,ioos:station:wmo:42884:1,2020-04-01T13:13:00Z,27.3546,-94.4732,10.0,23.7,11111222
Anadarko,ioos:station:wmo:42884:1,2020-04-01T13:24:00Z,27.3546,-94.4732,10.0,23.6,11111222
Anadarko,ioos:station:wmo:42884:1,2020-04-01T13:34:00Z,27.3546,-94.4732,10.0,23.9,11111222
Anadarko,ioos:station:wmo:42884:1,2020-04-01T13:44:00Z,27.3546,-94.4732,10.0,23.5,11111222
Anadarko,ioos:station:wmo:42884:1,2020-04-01T13:54:00Z,27.3546,-94.4732,10.0,23.5,11111222
Anadarko,ioos:station:wmo:42884:1,2020-04-01T14:04:00Z,27.3546,-94.4732,10.0,23.6,11111222
Anadarko,ioos:station:wmo:42884:1,2020-04-01T14:14:00Z,27.3546,-94.4732,10.0,23.8,11111222
Anadarko,ioos:station:wmo:42884:1,2020-04-01T14:24:00Z,27.3546,-94.4732,10.0,23.8,11111222
Anadarko,ioos:station:wmo:42884:1,2020-04-01T14:34:00Z,27.3546,-94.4732,10.0,23.6,11111222
Anadarko,ioos:station:wmo:42884:1,2020-04-01T14:44:00Z,27.3546,-94.4732,10.0,23.7,11111222
Anadarko,ioos:station:wmo:42884:1,2020-04-01T14:54:00Z,27.3546,-94.4732,10.0,23.8,11111222
Anadarko,ioos:station:wmo:42884:1,2020-04-01T15:04:00Z,27.3546,-94.4732,10.0,23.7,11111222
Anadarko,ioos:station:wmo:42884:1,2020-04-01T15:14:00Z,27.3546,-94.4732,10.0,23.6,11111222
Anadarko,ioos:station:wmo:42884:1,2020-04-01T15:24:00Z,27.3546,-94.4732,10.0,23.8,11111222
Anadarko,ioos:station:wmo:42884:1,2020-04-01T15:34:00Z,27.3546,-94.4732,10.0,23.9,11111222
Anadarko,ioos:station:wmo:42884:1,2020-04-01T15:44:00Z,27.3546,-94.4732,10.0,24.0,11111222
Anadarko,ioos:station:wmo:42884:1,2020-04-01T15:54:00Z,27.3546,-94.4732,10.0,23.9,11111222
Anadarko,ioos:station:wmo:42884:1,2020-04-01T16:04:00Z,27.3546,-94.4732,10.0,23.9,11111222
Anadarko,ioos:station:wmo:42884:1,2020-04-01T16:14:00Z,27.3546,-94.4732,10.0,23.8,11111222
Anadarko,ioos:station:wmo:42884:1,2020-04-01T16:24:00Z,27.3546,-94.4732,10.0,23.8,11111222
Anadarko,ioos:station:wmo:42884:1,2020-04-01T16:34:00Z,27.3546,-94.4732,10.0,23.9,11111222
Anadarko,ioos:station:wmo:42884:1,2020-04-01T16:44:00Z,27.3546,-94.4732,10.0,23.7,11111222
Anadarko,ioos:station:wmo:42884:1,2020-04-01T16:54:00Z,27.3546,-94.4732,10.0,23.7,11111222
Anadarko,ioos:station:wmo:42884:1,2020-04-01T17:04:00Z,27.3546,-94.4732,10.0,23.7,11111222
Anadarko,ioos:station:wmo:42884:1,2020-04-01T17:14:00Z,27.3546,-94.4732,10.0,23.6,11111222
Anadarko,ioos:station:wmo:42884:1,2020-04-01T17:24:00Z,27.3546,-94.4732,10.0,23.6,11111222
Anadarko,ioos:station:wmo:42884:1,2020-04-01T17:34:00Z,27.3546,-94.4732,10.0,23.3,11111222
Anadarko,ioos:station:wmo:42884:1,2020-04-01T17:44:00Z,27.3546,-94.4732,10.0,23.2,11111222
Anadarko,ioos:station:wmo:42884:1,2020-04-01T17:54:00Z,27.3546,-94.4732,10.0,23.3,11111222
Anadarko,ioos:station:wmo:42884:1,2020-04-01T18:04:00Z,27.3546,-94.4732,10.0,23.0,11111222
Anadarko,ioos:station:wmo:42884:1,2020-04-01T18:14:00Z,27.3546,-94.4732,10.0,23.1,11111222
Anadarko,ioos:station:wmo:42884:1,2020-04-01T18:24:00Z,27.3546,-94.4732,10.0,22.9,11111222
Anadarko,ioos:station:wmo:42884:1,2020-04-01T18:34:00Z,27.3546,-94.4732,10.0,23.5,11111222
Anadarko,ioos:station:wmo:42884:1,2020-04-01T18:44:00Z,27.3546,-94.4732,10.0,23.6,11111222
Anadarko,ioos:station:wmo:42884:1,2020-04-01T18:54:00Z,27.3546,-94.4732,10.0,23.5,11111222
Anadarko,ioos:station:wmo:42884:1,2020-04-01T19:04:00Z,27.3546,-94.4732,10.0,23.6,11111222
Anadarko,ioos:station:wmo:42884:1,2020-04-01T19:14:00Z,27.3546,-94.4732,10.0,23.4,11111222
Anadarko,ioos:station:wmo:42884:1,2020-04-01T19:24:00Z,27.3546,-94.4732,10.0,23.4,11111222
Anadarko,ioos:station:wmo:42884:1,2020-04-01T19:34:00Z,27.3546,-94.4732,10.0,23.4,11111222
Anadarko,ioos:station:wmo:42884:1,2020-04-01T19:44:00Z,27.3546,-94.4732,10.0,23.4,11111222
Anadarko,ioos:station:wmo:42884:1,2020-04-01T19:54:00Z,27.3546,-94.4732,10.0,23.4,11111222
Anadarko,ioos:station:wmo:42884:1,2020-04-01T20:04:00Z,27.3546,-94.4732,10.0,23.2,11111222
Anadarko,ioos:station:wmo:42884:1,2020-04-01T20:14:00Z,27.3546,-94.4732,10.0,23.3,11111222
Anadarko,ioos:station:wmo:42884:1,2020-04-01T20:24:00Z,27.3546,-94.4732,10.0,23.5,11111222
Anadarko,ioos:station:wmo:42884:1,2020-04-01T20:34:00Z,27.3546,-94.4732,10.0,23.5,11111222
Anadarko,ioos:station:wmo:42884:1,2020-04-01T20:44:00Z,27.3546,-94.4732,10.0,23.5,11111222
Anadarko,ioos:station:wmo:42884:1,2020-04-01T20:54:00Z,27.3546,-94.4732,10.0,23.6,11111222
Anadarko,ioos:station:wmo:42884:1,2020-04-01T21:04:00Z,27.3546,-94.4732,10.0,23.5,11111222
Anadarko,ioos:station:wmo:42884:1,2020-04-01T21:14:00Z,27.3546,-94.4732,10.0,23.5,11111222
Anadarko,ioos:station:wmo:42884:1,2020-04-01T21:24:00Z,27.3546,-94.4732,10.0,23.6,11111222
Anadarko,ioos:station:wmo:42884:1,2020-04-01T21:34:00Z,27.3546,-94.4732,10.0,23.6,11111222
Anadarko,ioos:station:wmo:42884:1,2020-04-01T21:44:00Z,27.3546,-94.4732,10.0,23.6,11111222
Anadarko,ioos:station:wmo:42884:1,2020-04-01T21:54:00Z,27.3546,-94.4732,10.0,23.7,11111222
Anadarko,ioos:station:wmo:42884:1,2020-04-01T22:04:00Z,27.3546,-94.4732,10.0,23.6,11111222
Anadarko,ioos:station:wmo:42884:1,2020-04-01T22:14:00Z,27.3546,-94.4732,10.0,23.6,11111222
Anadarko,ioos:station:wmo:42884:1,2020-04-01T22:24:00Z,27.3546,-94.4732,10.0,23.7,11111222
Anadarko,ioos:station:wmo:42884:1,2020-04-01T22:34:00Z,27.3546,-94.4732,10.0,23.7,11111222
Anadarko,ioos:station:wmo:42884:1,2020-04-01T22:44:00Z,27.3546,-94.4732,10.0,23.6,11111222
Anadarko,ioos:station:wmo:42884:1,2020-04-01T22:54:00Z,27.3546,-94.4732,10.0,23.8,11111222
Anadarko,ioos:station:wmo:42884:1,2020-04-01T23:04:00Z,27.3546,-94.4732,10.0,23.8,11111222
Anadarko,ioos:station:wmo:42884:1,2020-04-01T23:14:00Z,27.3546,-94.4732,10.0,23.7,11111222
Anadarko,ioos:station:wmo:42884:1,2020-04-01T23:24:00Z,27.3546,-94.4732,10.0,23.7,11111222
Anadarko,ioos:station:wmo:42884:1,2020-04-01T23:34:00Z,27.3546,-94.4732,10.0,23.6,11111222
Anadarko,ioos:station:wmo:42884:1,2020-04-01T23:44:00Z,27.3546,-94.4732,10.0,23.7,11111222
Anadarko,ioos:station:wmo:42884:1,2020-04-01T23:54:00Z,27.3546,-94.4732,10.0,23.8,11111222
Anadarko,ioos:station:wmo:42884:1,2020-04-02T00:04:00Z,27.3546,-94.4732,10.0,23.9,11111222
Anadarko,ioos:station:wmo:42884:1,2020-04-02T00:14:00Z,27.3546,-94.4732,10.0,24.1,11111222
Anadarko,ioos:station:wmo:42884:1,2020-04-02T00:24:00Z,27.3546,-94.4732,10.0,24.0,11111222
Anadarko,ioos:station:wmo:42884:1,2020-04-02T00:34:00Z,27.3546,-94.4732,10.0,24.0,11111222
Anadarko,ioos:station:wmo:42884:1,2020-04-02T00:44:00Z,27.3546,-94.4732,10.0,24.2,11111222
Anadarko,ioos:station:wmo:42884:1,2020-04-02T00:54:00Z,27.3546,-94.4732,10.0,24.2,11111222
Anadarko,ioos:station:wmo:42884:1,2020-04-02T01:04:00Z,27.3546,-94.4732,10.0,24.3,11111222
Anadarko,ioos:station:wmo:42884:1,2020-04-02T01:14:00Z,27.3546,-94.4732,10.0,24.4,11111222
Anadarko,ioos:station:wmo:42884:1,2020-04-02T01:24:00Z,27.3546,-94.4732,10.0,24.4,11111222
Anadarko,ioos:station:wmo:42884:1,2020-04-02T01:34:00Z,27.3546,-94.4732,10.0,24.4,11111222
Anadarko,ioos:station:wmo:42884:1,2020-04-02T01:44:00Z,27.3546,-94.4732,10.0,24.4,11111222
Anadarko,ioos:station:wmo:42884:1,2020-04-02T01:54:00Z,27.3546,-94.4732,10.0,24.4,11111222
Anadarko,ioos:station:wmo:42884:1,2020-04-02T02:04:00Z,27.3546,-94.4732,10.0,24.5,11111222
Anadarko,ioos:station:wmo:42884:1,2020-04-02T02:14:00Z,27.3546,-94.4732,10.0,24.4,11111222
Anadarko,ioos:station:wmo:42884:1,2020-04-02T02:24:00Z,27.3546,-94.4732,10.0,24.4,11111222
Anadarko,ioos:station:wmo:42884:1,2020-04-02T02:34:00Z,27.3546,-94.4732,10.0,24.5,11111222
Anadarko,ioos:station:wmo:42884:1,2020-04-02T02:44:00Z,27.3546,-94.4732,10.0,24.4,11111222
Anadarko,ioos:station:wmo:42884:1,2020-04-02T02:54:00Z,27.3546,-94.4732,10.0,24.4,11111222
Anadarko,ioos:station:wmo:42884:1,2020-04-02T03:04:00Z,27.3546,-94.4732,10.0,24.4,11111222
Anadarko,ioos:station:wmo:42884:1,2020-04-02T03:14:00Z,27.3546,-94.4732,10.0,24.3,11111222
Anadarko,ioos:station:wmo:42884:1,2020-04-02T03:24:00Z,27.3546,-94.4732,10.0,24.4,11111222
Anadarko,ioos:station:wmo:42884:1,2020-04-02T03:34:00Z,27.3546,-94.4732,10.0,24.1,11111222
Anadarko,ioos:station:wmo:42884:1,2020-04-02T03:44:00Z,27.3546,-94.4732,10.0,24.3,11111222
Anadarko,ioos:station:wmo:42884:1,2020-04-02T03:54:00Z,27.3546,-94.4732,10.0,24.2,11111222
Anadarko,ioos:station:wmo:42884:1,2020-04-02T04:04:00Z,27.3546,-94.4732,10.0,24.0,11111222
Anadarko,ioos:station:wmo:42884:1,2020-04-02T04:14:00Z,27.3546,-94.4732,10.0,23.7,11111222
Anadarko,ioos:station:wmo:42884:1,2020-04-02T04:24:00Z,27.3546,-94.4732,10.0,24.1,11111222
Anadarko,ioos:station:wmo:42884:1,2020-04-02T04:34:00Z,27.3546,-94.4732,10.0,24.1,11111222
Anadarko,ioos:station:wmo:42884:1,2020-04-02T04:44:00Z,27.3546,-94.4732,10.0,23.9,11111222
Anadarko,ioos:station:wmo:42884:1,2020-04-02T04:54:00Z,27.3546,-94.4732,10.0,24.3,11111222
Anadarko,ioos:station:wmo:42884:1,2020-04-02T05:04:00Z,27.3546,-94.4732,10.0,24.4,11111222
Anadarko,ioos:station:wmo:42884:1,2020-04-02T05:14:00Z,27.3546,-94.4732,10.0,24.4,11111222
Anadarko,ioos:station:wmo:42884:1,2020-04-02T05:24:00Z,27.3546,-94.4732,10.0,24.3,11111222
Anadarko,ioos:station:wmo:42884:1,2020-04-02T05:34:00Z,27.3546,-94.4732,10.0,24.4,11111222
Anadarko,ioos:station:wmo:42884:1,2020-04-02T05:44:00Z,27.3546,-94.4732,10.0,24.4,11111222
Anadarko,ioos:station:wmo:42884:1,2020-04-02T05:54:00Z,27.3546,-94.4732,10.0,24.4,11111222
Anadarko,ioos:station:wmo:42884:1,2020-04-02T06:04:00Z,27.3546,-94.4732,10.0,24.4,11111222
Anadarko,ioos:station:wmo:42884:1,2020-04-02T06:14:00Z,27.3546,-94.4732,10.0,24.4,11111222
Anadarko,ioos:station:wmo:42884:1,2020-04-02T06:24:00Z,27.3546,-94.4732,10.0,24.3,11111222
Anadarko,ioos:station:wmo:42884:1,2020-04-02T06:34:00Z,27.3546,-94.4732,10.0,24.4,11111222
Anadarko,ioos:station:wmo:42884:1,2020-04-02T06:44:00Z,27.3546,-94.4732,10.0,24.4,11111222
Anadarko,ioos:station:wmo:42884:1,2020-04-02T06:54:00Z,27.3546,-94.4732,10.0,24.4,11111222
Anadarko,ioos:station:wmo:42884:1,2020-04-02T07:04:00Z,27.3546,-94.4732,10.0,24.4,11111222
Anadarko,ioos:station:wmo:42884:1,2020-04-02T07:14:00Z,27.3546,-94.4732,10.0,24.4,11111222
Anadarko,ioos:station:wmo:42884:1,2020-04-02T07:24:00Z,27.3546,-94.4732,10.0,24.4,11111222
Anadarko,ioos:station:wmo:42884:1,2020-04-02T07:34:00Z,27.3546,-94.4732,10.0,24.3,11111222
Anadarko,ioos:station:wmo:42884:1,2020-04-02T07:44:00Z,27.3546,-94.4732,10.0,24.4,11111222
Anadarko,ioos:station:wmo:42884:1,2020-04-02T07:54:00Z,27.3546,-94.4732,10.0,24.3,11111222
Anadarko,ioos:station:wmo:42884:1,2020-04-02T08:04:00Z,27.3546,-94.4732,10.0,24.4,11111222
Anadarko,ioos:station:wmo:42884:1,2020-04-02T08:14:00Z,27.3546,-94.4732,10.0,24.4,11111222
Anadarko,ioos:station:wmo:42884:1,2020-04-02T08:24:00Z,27.3546,-94.4732,10.0,24.4,11111222
Anadarko,ioos:station:wmo:42884:1,2020-04-02T08:34:00Z,27.3546,-94.4732,10.0,24.3,11111222
Anadarko,ioos:station:wmo:42884:1,2020-04-02T08:44:00Z,27.3546,-94.4732,10.0,24.3,11111222
Anadarko,ioos:station:wmo:42884:1,2020-04-02T08:54:00Z,27.3546,-94.4732,10.0,24.4,11111222
Anadarko,ioos:station:wmo:42884:1,2020-04-02T09:04:00Z,27.3546,-94.4732,10.0,24.3,11111222
Anadarko,ioos:station:wmo:42884:1,2020-04-02T09:14:00Z,27.3546,-94.4732,10.0,24.3,11111222
Anadarko,ioos:station:wmo:42884:1,2020-04-02T09:24:00Z,27.3546,-94.4732,10.0,24.4,11111222
Anadarko,ioos:station:wmo:42884:1,2020-04-02T09:34:00Z,27.3546,-94.4732,10.0,24.3,11111222
Anadarko,ioos:station:wmo:42884:1,2020-04-02T09:44:00Z,27.3546,-94.4732,10.0,24.3,11111222
Anadarko,ioos:station:wmo:42884:1,2020-04-02T09:54:00Z,27.3546,-94.4732,10.0,24.3,11111222
Anadarko,ioos:station:wmo:42884:1,2020-04-02T10:04:00Z,27.3546,-94.4732,10.0,24.3,11111222
Anadarko,ioos:station:wmo:42884:1,2020-04-02T10:14:00Z,27.3546,-94.4732,10.0,24.4,11111222
Anadarko,ioos:station:wmo:42884:1,2020-04-02T10:24:00Z,27.3546,-94.4732,10.0,24.3,11111222
Anadarko,ioos:station:wmo:42884:1,2020-04-02T10:34:00Z,27.3546,-94.4732,10.0,24.1,11111222
Anadarko,ioos:station:wmo:42884:1,2020-04-02T10:44:00Z,27.3546,-94.4732,10.0,23.8,11111222
Anadarko,ioos:station:wmo:42884:1,2020-04-02T10:54:00Z,27.3546,-94.4732,10.0,23.8,11111222
Anadarko,ioos:station:wmo:42884:1,2020-04-02T11:04:00Z,27.3546,-94.4732,10.0,23.9,11111222
Anadarko,ioos:station:wmo:42884:1,2020-04-02T11:14:00Z,27.3546,-94.4732,10.0,23.9,11111222
Anadarko,ioos:station:wmo:42884:1,2020-04-02T11:24:00Z,27.3546,-94.4732,10.0,23.8,11111222
Anadarko,ioos:station:wmo:42884:1,2020-04-02T11:34:00Z,27.3546,-94.4732,10.0,23.9,11111222
Anadarko,ioos:station:wmo:42884:1,2020-04-02T11:44:00Z,27.3546,-94.4732,10.0,23.9,11111222
Anadarko,ioos:station:wmo:42884:1,2020-04-02T11:54:00Z,27.3546,-94.4732,10.0,23.8,11111222
Anadarko,ioos:station:wmo:42884:1,2020-04-02T12:04:00Z,27.3546,-94.4732,10.0,23.8,11111222
Anadarko,ioos:station:wmo:42884:1,2020-04-02T12:14:00Z,27.3546,-94.4732,10.0,23.6,11111222
Anadarko,ioos:station:wmo:42884:1,2020-04-02T12:24:00Z,27.3546,-94.4732,10.0,23.5,11111222
Anadarko,ioos:station:wmo:42884:1,2020-04-02T12:34:00Z,27.3546,-94.4732,10.0,23.3,11111222
Anadarko,ioos:station:wmo:42884:1,2020-04-02T12:44:00Z,27.3546,-94.4732,10.0,23.2,11111222
Anadarko,ioos:station:wmo:42884:1,2020-04-02T12:54:00Z,27.3546,-94.4732,10.0,23.1,11111222
Anadarko,ioos:station:wmo:42884:1,2020-04-02T13:04:00Z,27.3546,-94.4732,10.0,23.3,11111222
Anadarko,ioos:station:wmo:42884:1,2020-04-02T13:14:00Z,27.3546,-94.4732,10.0,23.5,11111222
Anadarko,ioos:station:wmo:42884:1,2020-04-02T13:24:00Z,27.3546,-94.4732,10.0,23.4,11111222
Anadarko,ioos:station:wmo:42884:1,2020-04-02T13:34:00Z,27.3546,-94.4732,10.0,23.3,11111222
Anadarko,ioos:station:wmo:42884:1,2020-04-02T13:44:00Z,27.3546,-94.4732,10.0,23.3,11111222
Anadarko,ioos:station:wmo:42884:1,2020-04-02T13:54:00Z,27.3546,-94.4732,10.0,23.5,11111222
Anadarko,ioos:station:wmo:42884:1,2020-04-02T14:04:00Z,27.3546,-94.4732,10.0,23.4,11111222
Anadarko,ioos:station:wmo:42884:1,2020-04-02T14:14:00Z,27.3546,-94.4732,10.0,23.4,11111222
Anadarko,ioos:station:wmo:42884:1,2020-04-02T14:24:00Z,27.3546,-94.4732,10.0,23.6,11111222
Anadarko,ioos:station:wmo:42884:1,2020-04-02T14:34:00Z,27.3546,-94.4732,10.0,23.3,11111222
Anadarko,ioos:station:wmo:42884:1,2020-04-02T14:44:00Z,27.3546,-94.4732,10.0,23.4,11111222
Anadarko,ioos:station:wmo:42884:1,2020-04-02T14:54:00Z,27.3546,-94.4732,10.0,23.4,11111222
Anadarko,ioos:station:wmo:42884:1,2020-04-02T15:04:00Z,27.3546,-94.4732,10.0,23.4,11111222
Anadarko,ioos:station:wmo:42884:1,2020-04-02T15:14:00Z,27.3546,-94.4732,10.0,23.3,11111222
Anadarko,ioos:station:wmo:42884:1,2020-04-02T15:24:00Z,27.3546,-94.4732,10.0,23.2,11111222
Anadarko,ioos:station:wmo:42884:1,2020-04-02T15:34:00Z,27.3546,-94.4732,10.0,23.0,11111222
Anadarko,ioos:station:wmo:42884:1,2020-04-02T15:44:00Z,27.3546,-94.4732,10.0,23.1,11111222
Anadarko,ioos:station:wmo:42884:1,2020-04-02T15:54:00Z,27.3546,-94.4732,10.0,22.9,11111222
Anadarko,ioos:station:wmo:42884:1,2020-04-02T16:04:00Z,27.3546,-94.4732,10.0,23.1,11111222
Anadarko,ioos:station:wmo:42884:1,2020-04-02T16:14:00Z,27.3546,-94.4732,10.0,23.1,11111222
Anadarko,ioos:station:wmo:42884:1,2020-04-02T16:24:00Z,27.3546,-94.4732,10.0,23.4,11111222
Anadarko,ioos:station:wmo:42884:1,2020-04-02T16:34:00Z,27.3546,-94.4732,10.0,23.2,11111222
Anadarko,ioos:station:wmo:42884:1,2020-04-02T16:44:00Z,27.3546,-94.4732,10.0,23.0,11111222
Anadarko,ioos:station:wmo:42884:1,2020-04-02T16:54:00Z,27.3546,-94.4732,10.0,22.9,11111222
Anadarko,ioos:station:wmo:42884:1,2020-04-02T17:04:00Z,27.3546,-94.4732,10.0,23.0,11111222
Anadarko,ioos:station:wmo:42884:1,2020-04-02T17:14:00Z,27.3546,-94.4732,10.0,23.3,11111222
Anadarko,ioos:station:wmo:42884:1,2020-04-02T17:24:00Z,27.3546,-94.4732,10.0,23.3,11111222
Anadarko,ioos:station:wmo:42884:1,2020-04-02T17:34:00Z,27.3546,-94.4732,10.0,23.1,11111222
Anadarko,ioos:station:wmo:42884:1,2020-04-02T17:44:00Z,27.3546,-94.4732,10.0,23.3,11111222
Anadarko,ioos:station:wmo:42884:1,2020-04-02T17:54:00Z,27.3546,-94.4732,10.0,23.3,11111222
Anadarko,ioos:station:wmo:42884:1,2020-04-02T18:04:00Z,27.3546,-94.4732,10.0,23.4,11111222
Anadarko,ioos:station:wmo:42884:1,2020-04-02T18:14:00Z,27.3546,-94.4732,10.0,23.6,11111222
Anadarko,ioos:station:wmo:42884:1,2020-04-02T18:24:00Z,27.3546,-94.4732,10.0,23.5,11111222
Anadarko,ioos:station:wmo:42884:1,2020-04-02T18:34:00Z,27.3546,-94.4732,10.0,23.5,11111222
Anadarko,ioos:station:wmo:42884:1,2020-04-02T18:44:00Z,27.3546,-94.4732,10.0,23.5,11111222
Anadarko,ioos:station:wmo:42884:1,2020-04-02T18:54:00Z,27.3546,-94.4732,10.0,23.7,11111222
Anadarko,ioos:station:wmo:42884:1,2020-04-02T19:04:00Z,27.3546,-94.4732,10.0,23.7,11111222